Oceanside, CA

2:13 AM PDT on October 14, 2019 (GMT -0700)
Oceanside Municipal

Weather History for KOKB - September, 2019

Change the Weather History Date:

Saturday, September 21, 2019

  Actual Average Record
Temperature  
Mean Temperature 68 °F 67 °F  
Max Temperature 79 °F 76 °F 90 °F (2004)
Min Temperature 57 °F 58 °F 46 °F (2007)
Degree Days  
Heating Degree Days 0 0  
Month to date heating degree days 0 0  
Since 1 July heating degree days 0 5  
Cooling Degree Days 3 3  
Month to date cooling degree days 128 75  
Year to date cooling degree days 498 375  
Growing Degree Days 17 (Base 50)    
Moisture  
Dew Point 59 °F    
Average Humidity 77    
Maximum Humidity 93    
Minimum Humidity 60    
Precipitation  
Precipitation 0.00 in 0.00 in 0.06 in (2016)
Month to date precipitation T 0.18  
Year to date precipitation 11.07 9.72  
Sea Level Pressure  
Sea Level Pressure 29.86 in    
Wind  
Wind Speed 4 mph (WNW)    
Max Wind Speed 14 mph    
Max Gust Speed 21 mph    
Visibility 9 miles    
Events      
T = Trace of Precipitation, MM = Missing Value Source: NWS Daily Summary

Daily Weather History Graph

Daily Weather History Graph

Search for Another Location

Airport or City:

Astronomy

Sep. 21, 2019 Rise Set
Actual Time 6:36 AM PDT 6:47 PM PDT
Civil Twilight 6:12 AM PDT 7:12 PM PDT
Nautical Twilight 5:43 AM PDT 7:41 PM PDT
Astronomical Twilight 5:13 AM PDT 8:10 PM PDT
Moon 11:49 PM PDT (9/21) 1:28 PM PDT (9/21)
Length of Visible Light 13h 00m
Length of Day
12h 10m
Waning Gibbous, 53% of the Moon is Illuminated
Sep 21
Waning Gibbous
Sep 21
Last Quarter
Sep 28
New
Oct 5
First Quarter
Oct 13
Full

Hourly Weather History & Observations

Time (PDT) Temp. Dew Point Humidity Pressure Visibility Wind Dir Wind Speed Gust Speed Precip Events Conditions
12:52 AM 61.0 °F 57.9 °F 90% 29.88 in 9.0 mi Calm Calm - N/A   Mostly Cloudy
1:03 AM 61.0 °F 57.9 °F 90% 29.88 in 8.0 mi Calm Calm - N/A   Scattered Clouds
1:52 AM 62.1 °F 57.9 °F 86% 29.88 in 9.0 mi Calm Calm - N/A   Clear
2:52 AM 60.1 °F 57.0 °F 90% 29.87 in 8.0 mi Calm Calm - N/A   Clear
3:52 AM 57.9 °F 55.0 °F 90% 29.87 in 8.0 mi NNE 3.5 mph - N/A   Clear
4:52 AM 57.9 °F 55.0 °F 90% 29.87 in 8.0 mi Calm Calm - N/A   Mostly Cloudy
5:52 AM 60.1 °F 55.9 °F 86% 29.88 in 9.0 mi Calm Calm - N/A   Overcast
6:06 AM 60.1 °F 55.9 °F 86% 29.88 in 9.0 mi NNE 3.5 mph - N/A   Overcast
6:52 AM 60.1 °F 55.9 °F 86% 29.88 in 8.0 mi NNE 3.5 mph - N/A   Overcast
7:08 AM 60.1 °F 55.9 °F 86% 29.89 in 8.0 mi Variable 3.5 mph - N/A   Overcast
7:19 AM 61.0 °F 55.9 °F 83% 29.89 in 8.0 mi North 3.5 mph - N/A   Overcast
7:52 AM 63.0 °F 55.9 °F 78% 29.90 in 9.0 mi NNE 3.5 mph - N/A   Overcast
8:15 AM 63.0 °F 55.9 °F 78% 29.91 in 9.0 mi NE 3.5 mph - N/A   Overcast
8:52 AM 66.9 °F 60.1 °F 79% 29.91 in 7.0 mi Calm Calm - N/A   Mostly Cloudy
9:06 AM 66.9 °F 60.1 °F 79% 29.90 in 8.0 mi Calm Calm - N/A   Scattered Clouds
9:52 AM 72.0 °F 59.0 °F 64% 29.90 in 9.0 mi South 3.5 mph - N/A   Clear
10:52 AM 75.0 °F 61.0 °F 62% 29.88 in 9.0 mi WSW 8.1 mph - N/A   Clear
11:52 AM 77.0 °F 62.1 °F 60% 29.86 in 9.0 mi WSW 10.4 mph - N/A   Clear
12:52 PM 75.9 °F 62.1 °F 62% 29.84 in 9.0 mi WSW 11.5 mph - N/A   Clear
1:52 PM 77.0 °F 62.1 °F 60% 29.82 in 9.0 mi West 10.4 mph 18.4 mph N/A   Clear
2:52 PM 77.0 °F 63.0 °F 62% 29.81 in 10.0 mi West 10.4 mph - N/A   Clear
3:52 PM 75.9 °F 63.0 °F 64% 29.79 in 10.0 mi WSW 10.4 mph - N/A   Clear
4:52 PM 75.0 °F 63.0 °F 66% 29.79 in 10.0 mi WSW 8.1 mph - N/A   Clear
5:52 PM 73.0 °F 62.1 °F 68% 29.80 in 10.0 mi WSW 6.9 mph - N/A   Clear
6:52 PM 71.1 °F 62.1 °F 73% 29.82 in 10.0 mi SSW 5.8 mph - N/A   Clear
7:52 PM 69.1 °F 61.0 °F 75% 29.83 in 10.0 mi Calm Calm - N/A   Clear
8:52 PM 64.0 °F 57.9 °F 80% 29.85 in 10.0 mi Calm Calm - N/A   Clear
9:52 PM 63.0 °F 57.9 °F 84% 29.86 in 10.0 mi Calm Calm - N/A   Clear
10:52 PM 61.0 °F 57.9 °F 90% 29.86 in 10.0 mi Calm Calm - N/A   Clear
11:52 PM 62.1 °F 57.9 °F 86% 29.85 in 10.0 mi NNE 4.6 mph - N/A   Clear